Tracking 35274 objects as of 12-Sep-2026
HD Live streaming from Space Station
objects crossing your sky now

STARLINK-30608

Track STARLINK-30608 now!
10-day predictions
STARLINK-30608 is classified as:


NORAD ID: 58091
Int'l Code: 2023-160S
Launch date: October 18, 2023
Source: United States (US)
Launch site: AIR FORCE EASTERN TEST RANGE (AFETR)
Your satellite tracking list
Your tracking list is empty




NASA's NSSDC Master Catalog

Two Line Element Set (TLE):
1 58091U 23160S   26254.90250248  .00000440  00000-0  25513-4 0  9992
2 58091  43.0031 106.3409 0000923 264.1032  95.9715 15.27580035161427
Source of the keplerian elements: AFSPC